ATLAS 5 CENTAUR DEB, 52828

Orbit data source: Space-Track

ATLAS 5 CENTAUR DEB, 52828 is space debris in HEO originally from a launch on Wed, 17 Sep 2014 UTC launched from the Air Force Eastern Test Range (AFETR). Debris objects in space refer to the collection of defunct objects orbiting the Earth. Examples of debris include non-operational satellites, rocket bodies, and fragments generated from explosions, collisions, or faulty payload assembly.

Loading next visibility...
Identifier
52828, 2014-055DL
Orbit
HEO
Country
Flag of USUS
Related business
Flag of USUnited Launch Alliance/Lockheed Martin (US)
Manufacturer
Unknown
Mission
Spacecraft
Bus & Motor
Unknown
Mass
Unknown
Launch date (UTC)
2014-09-17 (12 years ago)
Launch vehicle
Unknown
Launch site
Air Force Eastern Test Range (AFETR)
Object type
Payload
Rocket body
Debris
Shape & HBR
Unknown shape, 1.1 m
Radar Cross Section
RCS unknown

Expand to show TLE details & history
Last TLE update: 2 weeks ago

TLE from 2 weeks ago
0 ATLAS 5 CENTAUR DEB
1 52828U 14055DL  26225.42295273 -.00000063  00000-0  00000-0 0  9991
2 52828  19.4632 165.0734 4672711 127.1808 285.2111  1.81207562 28106
Epoch: 2026-08-13T10:09Z
TLE epoch observation values (Epoch: 2026-08-13T10:09:03.115Z)
Latitude
0.00003°
Longitude
50.84892°
Altitude
24,617.19 km
Speed
3.42 km/s
True Right ascension
10h 59m 53s
True Declination
0° 00' 00"
Sunlit
Object was in daylight at epoch
Visualization orbit readout
Latitude
Unknown
Longitude
Unknown
Altitude
Unknown
Speed
Unknown
Apparent Right ascension
Unknown
Apparent Declination
Unknown
Sunlit
N/A
Visualization observer readout
Local Sidereal Time
09:18:13
Azimuth
Unknown
Elevation
Unknown
Doppler factor
Unknown
Orbital elements
Apogee altitude
35,323.857 km
Perigee altitude
8,762.799 km
Semi-major axis
28,421.465 km
Eccentricity
0.46727
Inclination
19.4632°
RAAN
165.0734°
Arg. of periapsis
127.1808°
True anomaly
232.77615°
Mean anomaly
285.2111°
Eccentric anomaly
258.93605°
Mean motion
0.45297 °/min
Orbital period
794.75 mins
BSTAR
0
Loading maneuver chart data...
Computing Atmospheric mass density...

Documentation

Showing up to 5 results
|